This demonstration page uses our WeatherBlox Daily Observations layout. Learn more.

Left ArrowRight Arrow

53.62937, 11.41316

Hourly Observations for March 12, 2018

Temp ( °F °C ) Dew Point ( °F °C ) Humidity (%) Winds ( mph kmh ) Pressure ( in mb ) Visibility ( mi km ) Precip ( " mm )
6:50 am 06:50 Mostly Cloudy with Fog 43 6 43 6 100 100 VRB 1 2 29.29 992 0 1 N/A
7:20 am 07:20 Mostly Cloudy with Light Rain 45 7 45 7 100 100 NNW 2 4 29.26 991 1 1 N/A
7:50 am 07:50 Partly Cloudy with Mist and Fog 45 7 45 7 100 100 Calm 29.26 991 1 1 N/A
8:20 am 08:20 Partly Cloudy with Mist and Fog 45 7 45 7 100 100 VRB 1 2 29.26 991 2 3 N/A
8:50 am 08:50 Mostly Cloudy with Light Rain 46 8 46 8 100 100 VRB 1 2 29.26 991 1 2 N/A
9:20 am 09:20 Mostly Cloudy with Light Rain 46 8 46 8 100 100 VRB 1 2 29.26 991 2 3 N/A
9:50 am 09:50 Mostly Cloudy with Light Rain 46 8 46 8 100 100 NNW 1 2 29.26 991 1 2 N/A
10:20 am 10:20 Mostly Cloudy with Light Rain 46 8 46 8 100 100 N 1 2 29.26 991 1 1 N/A
10:50 am 10:50 Mostly Cloudy with Rain 46 8 46 8 100 100 VRB 1 2 29.26 991 1 2 N/A
11:20 am 11:20 Mostly Cloudy with Light Rain 46 8 46 8 100 100 VRB 1 2 29.26 991 1 1 N/A
11:50 am 11:50 Mostly Cloudy with Light Rain 46 8 46 8 100 100 VRB 1 2 29.26 991 1 2 N/A
12:20 pm 12:20 Mostly Cloudy with Rain 46 8 46 8 100 100 VRB 1 2 29.26 991 1 2 N/A
12:50 pm 12:50 Cloudy with Rain 46 8 46 8 100 100 VRB 1 2 29.26 991 1 2 N/A
1:20 pm 13:20 Cloudy with Rain 48 9 48 9 100 100 VRB 2 4 29.26 991 1 2 N/A
1:50 pm 13:50 Cloudy with Rain 48 9 48 9 100 100 VRB 2 4 29.26 991 2 3 N/A
2:20 pm 14:20 Cloudy with Light Rain 48 9 48 9 100 100 VRB 2 4 29.26 991 2 4 N/A
2:50 pm 14:50 Mostly Cloudy with Light Rain 48 9 48 9 100 100 VRB 1 2 29.26 991 2 4 N/A
3:20 pm 15:20 Mostly Cloudy with Light Rain 48 9 48 9 100 100 VRB 2 4 29.26 991 2 3 N/A
3:50 pm 15:50 Mostly Cloudy with Light Rain 48 9 48 9 100 100 W 3 6 29.26 991 2 3 N/A
4:20 pm 16:20 Cloudy with Light Rain 50 10 50 10 100 100 W 3 6 29.26 991 2 3 N/A
4:50 pm 16:50 Cloudy with Light Rain 50 10 50 10 100 100 VRB 2 4 29.26 991 2 3 N/A
5:20 pm 17:20 Cloudy with Light Rain 50 10 50 10 100 100 W 5 7 29.26 991 1 2 N/A
5:50 pm 17:50 Cloudy with Light Rain 50 10 50 10 100 100 VRB 2 4 29.26 991 1 2 N/A
6:20 pm 18:20 Cloudy with Light Rain 50 10 50 10 100 100 W 3 6 29.29 992 1 2 N/A

Powered by AerisWeather